Theta_e
312 313 311 310 311 309 309 312 313 315 318 317 315 313 313 318 320 318 318 318 317 313 312 314 313 314 316 315 314 316 315 315 316 315 315 315 315 316 316 316 316 315 314 314 313 313 312 311 311 311 312 313 314 315 315 315 316 317 318 319 319 319 319 318 318 318 318 318 318 319 319 319 319 320 320 319 319 319 319 319 319 319 319 319 320 319 319
314 313 311 310 311 311 311 313 313 314 316 316 314 313 314 317 318 317 317 316 314 311 311 311 310 309 310 311 312 313 312 313 314 314 314 314 314 314 314 314 314 314 314 314 314 313 313 312 311 310 310 310 310 311 312 311 312 312 313 314 314 314 313 312 312 313 313 313 312 312 314 315 316 316 315 315 316 316 316 316 315 316 317 316 316 316 317
316 314 313 311 312 312 313 314 315 316 316 315 315 315 316 319 314 311 314 316 313 310 309 309 308 307 308 309 309 309 310 310 312 312 313 314 314 314 313 313 312 312 312 313 313 312 312 311 311 310 310 310 309 308 308 309 309 309 309 310 310 310 310 309 309 309 309 309 309 309 310 311 311 311 311 312 312 312 312 312 313 315 316 316 315 315 315
315 314 314 313 314 316 317 316 314 316 315 312 312 312 314 316 314 312 315 315 313 311 308 306 307 307 307 307 307 308 309 310 311 311 311 312 314 314 314 312 312 311 311 311 311 311 311 310 310 310 310 310 309 308 307 307 307 307 307 307 308 309 309 309 308 308 308 309 309 309 309 309 309 310 310 310 310 310 311 311 311 313 314 314 315 315 315
315 313 314 317 318 317 318 316 311 311 312 310 310 309 309 311 313 314 315 311 309 309 307 306 306 305 305 306 306 307 308 309 310 311 311 312 313 314 314 313 312 311 311 311 310 310 310 310 310 310 310 309 309 309 308 306 305 305 306 306 306 307 308 307 308 308 308 308 308 308 308 308 309 309 309 310 310 310 310 310 311 311 311 312 312 313 314
313 312 316 319 316 313 314 313 310 309 309 309 308 307 306 307 309 310 309 307 306 307 306 306 306 305 305 305 305 306 308 309 310 310 311 312 312 313 313 312 311 311 311 310 310 309 309 309 309 309 309 308 308 308 307 306 306 306 306 307 307 307 307 307 307 307 307 307 307 307 308 308 308 308 307 307 307 307 307 307 308 307 308 308 309 311 312
314 312 316 316 312 311 311 310 308 307 306 305 306 305 305 306 307 307 307 306 306 305 304 305 305 304 304 304 304 305 306 307 308 309 309 310 311 311 311 311 310 309 309 309 309 308 308 308 308 308 308 308 307 307 307 307 307 307 306 307 307 307 307 307 307 307 306 306 307 307 308 308 308 307 307 306 304 303 303 304 304 304 304 304 304 306 307
313 310 313 314 310 309 310 310 309 307 307 309 309 306 304 305 306 306 306 305 303 302 303 304 305 305 304 304 304 304 304 305 305 306 307 308 309 310 310 310 309 308 308 308 308 308 308 307 307 307 308 308 307 308 308 308 308 307 307 307 307 307 307 307 307 307 307 307 307 308 308 308 308 307 307 305 303 302 302 302 302 303 303 303 302 302 303
313 312 311 312 310 307 308 311 308 306 307 309 310 308 304 303 303 303 304 305 302 301 302 304 304 304 304 304 303 303 303 303 303 304 305 306 306 307 307 308 309 308 308 308 308 308 308 307 307 306 307 307 307 308 308 308 307 307 307 307 307 306 306 307 307 307 306 306 307 307 308 308 308 307 307 306 305 305 304 303 303 303 303 303 302 302 302
315 315 311 310 309 307 308 308 306 304 304 304 307 309 306 303 302 301 302 304 302 300 302 303 303 304 306 305 304 302 302 303 303 303 303 303 304 304 304 305 306 306 307 307 307 307 308 307 307 306 306 306 306 306 307 307 307 307 307 307 306 306 306 306 306 306 306 306 306 307 307 307 307 307 307 307 307 307 306 306 306 306 305 303 302 302 302
312 314 312 310 309 308 307 306 305 304 302 302 305 309 306 302 301 301 301 301 300 300 301 301 302 304 305 305 303 301 302 302 302 303 302 302 303 303 303 303 304 304 304 305 305 305 305 306 306 306 306 306 305 306 306 306 306 305 305 305 306 306 306 305 306 306 306 306 306 306 306 305 305 305 305 305 306 306 306 306 306 307 306 304 303 303 303
311 313 312 309 307 306 305 305 304 302 301 303 307 308 305 301 300 300 299 299 299 300 300 300 301 303 303 303 302 301 301 301 301 302 302 301 302 302 302 302 302 303 303 304 304 303 304 304 304 304 305 305 304 304 304 305 305 304 304 304 305 305 305 304 305 305 305 306 306 305 305 305 305 305 305 306 306 307 308 308 308 308 307 306 306 305 305
310 311 309 306 306 305 304 303 303 301 303 306 308 307 304 301 300 299 298 298 299 298 299 299 300 300 300 300 300 300 300 300 300 300 301 300 301 301 301 301 301 302 302 302 303 303 303 303 303 303 303 303 303 303 303 303 304 304 304 304 304 304 305 305 305 306 306 306 306 305 305 305 306 306 306 307 307 307 308 308 308 308 308 308 308 308 308
309 310 308 305 305 304 302 302 302 301 306 309 306 303 301 299 299 299 298 298 299 298 298 298 298 298 299 299 299 299 299 299 299 300 300 300 300 300 300 300 300 300 300 301 301 302 302 303 302 302 302 303 303 303 303 303 303 303 303 304 303 304 304 304 305 305 305 305 305 305 305 305 306 306 305 305 305 305 306 306 306 307 308 308 308 309 309
307 307 306 306 305 304 301 302 302 301 304 305 303 300 299 298 298 298 298 298 298 298 298 298 298 298 298 298 299 299 299 299 299 299 299 299 300 300 300 300 300 299 300 300 300 300 301 301 301 302 302 302 302 302 302 302 302 302 303 303 304 304 304 304 304 304 304 304 304 304 304 304 304 305 305 304 304 305 305 306 307 308 308 308 308 308 307
306 305 304 304 304 302 299 300 300 299 299 300 299 299 298 298 298 298 298 298 298 298 298 298 298 298 298 298 299 298 298 299 299 299 299 299 299 299 299 299 299 299 299 299 299 300 300 300 300 301 301 301 302 302 302 302 302 302 303 303 303 304 304 304 304 304 304 304 304 303 304 304 305 305 306 306 306 307 307 307 307 307 307 308 308 308 307
301 301 301 301 301 299 298 298 298 298 298 298 298 298 298 298 299 298 298 298 298 298 298 298 298 298 298 298 298 298 298 298 298 299 299 298 299 299 299 299 299 299 299 299 299 299 299 299 300 300 300 301 301 301 302 302 302 302 302 303 303 303 304 304 304 304 303 303 303 303 304 304 305 305 306 306 306 307 307 307 306 306 306 307 308 308 307
299 299 299 298 297 298 298 298 298 298 298 298 298 298 298 299 299 299 299 299 299 298 299 298 298 298 298 298 298 298 298 298 298 298 298 298 298 298 298 298 298 299 299 299 299 299 299 299 300 300 300 301 301 301 301 301 302 302 302 302 303 303 303 303 303 303 303 303 303 303 303 303 304 304 304 304 304 304 305 304 303 304 304 305 307 307 307
300 299 297 297 297 298 298 298 298 298 298 298 298 298 298 298 299 299 299 299 299 299 299 298 298 298 298 298 298 298 298 298 298 298 298 298 298 298 299 298 298 298 299 299 299 299 299 299 300 300 300 301 301 301 301 301 302 302 302 302 302 302 302 302 302 302 302 302 302 302 303 303 303 303 303 303 303 303 302 302 302 302 304 305 306 307 307
300 298 297 297 298 297 298 298 298 298 298 298 298 298 298 298 298 298 298 298 298 298 298 298 298 298 298 298 298 298 298 298 298 298 298 298 298 298 299 298 298 298 298 298 298 299 299 299 299 300 300 300 300 300 300 301 301 301 301 301 301 301 301 301 301 301 302 302 302 302 302 302 302 302 303 303 303 303 303 303 303 303 304 305 306 307 307
300 298 298 298 298 298 298 298 298 298 298 298 298 298 298 298 298 298 298 298 298 298 298 298 297 297 297 297 297 297 297 298 298 298 298 298 298 298 298 299 299 298 298 298 298 299 299 299 299 299 299 300 300 300 300 300 300 300 300 300 300 301 301 301 301 301 301 301 301 301 301 302 302 302 303 303 303 303 302 302 302 302 303 304 305 305 305
300 298 298 298 299 300 298 297 298 298 298 298 298 297 297 297 297 297 297 297 297 297 297 297 297 297 297 297 297 297 297 297 297 297 297 297 298 298 298 298 298 298 298 298 298 298 298 298 298 299 299 299 299 299 300 300 300 300 300 301 301 301 301 301 301 301 301 301 301 301 302 302 302 303 303 303 302 302 301 301 301 302 303 303 303 304 304
298 297 298 298 298 298 298 297 298 298 297 298 298 297 297 297 297 297 297 297 297 297 297 297 297 297 297 297 297 297 297 297 296 296 296 297 297 297 297 298 298 298 298 298 298 298 298 299 299 299 299 299 299 299 300 300 300 300 300 301 301 301 301 301 301 301 301 301 301 301 301 301 301 302 301 301 301 301 301 301 301 302 303 303 303 303 304
298 298 298 298 297 297 297 298 298 297 297 298 297 297 297 297 297 297 297 296 296 296 296 296 296 296 296 296 295 295 296 296 295 295 295 295 295 296 297 297 298 298 298 298 298 298 299 299 299 299 299 300 299 299 299 299 300 300 301 301 301 301 301 301 301 301 300 300 301 301 300 300 300 300 300 300 300 300 301 302 302 303 304 303 303 303 303
298 298 298 298 298 297 297 297 297 297 297 297 297 297 297 297 296 296 296 295 295 294 294 294 294 294 294 294 294 294 294 294 294 294 294 294 294 294 296 297 297 298 298 298 298 298 299 300 300 300 300 300 299 300 300 300 300 300 301 301 301 300 300 300 300 299 300 300 300 300 299 299 299 299 299 299 300 301 302 302 302 302 303 303 303 303 303
298 298 298 298 297 297 297 297 297 297 297 297 297 297 296 296 296 295 294 294 293 292 292 292 292 292 292 291 291 291 291 291 292 292 292 292 292 292 293 295 296 296 297 298 299 299 299 300 300 300 300 300 300 300 300 300 300 300 300 300 299 299 299 299 299 299 299 299 299 299 299 299 299 299 299 299 300 300 301 302 302 302 302 302 301 301 300
298 297 297 297 297 297 297 297 297 297 297 297 296 296 296 295 294 293 293 292 291 291 291 291 291 291 291 290 290 290 290 289 290 290 290 290 289 289 290 292 293 294 296 297 298 299 299 299 300 300 300 299 299 299 299 299 299 299 299 299 299 299 299 299 299 299 298 298 298 299 300 300 299 299 299 300 300 300 301 301 301 301 300 299 298 298 297
297 297 297 297 297 297 297 297 297 297 296 296 296 295 294 293 292 292 291 291 290 291 291 291 291 290 290 290 289 289 289 289 289 289 289 289 288 288 289 290 291 292 294 295 296 297 298 299 299 299 299 298 298 298 298 298 298 298 299 299 299 299 298 298 297 297 297 298 298 299 299 300 300 300 300 299 300 300 300 300 300 299 298 297 296 295 295
297 297 297 297 297 297 297 297 296 296 296 296 295 293 292 292 291 291 291 290 290 291 291 291 290 290 289 289 289 289 289 289 289 289 289 289 288 288 288 289 290 291 292 293 294 295 296 297 298 298 298 297 297 298 298 298 298 299 299 299 298 297 297 296 296 296 296 297 297 297 298 299 299 299 299 299 299 299 299 298 297 297 296 295 295 295 295
297 297 297 297 297 297 297 296 295 295 295 295 293 292 291 291 291 291 290 290 290 291 290 290 290 289 289 289 289 289 289 289 289 289 288 288 288 288 288 288 288 289 290 291 292 293 294 296 297 297 297 298 298 298 298 298 299 299 298 297 296 296 296 296 296 296 296 296 296 296 297 297 297 298 298 298 298 297 297 296 296 296 295 295 295 295 295
297 297 297 297 296 296 296 295 294 295 295 294 293 292 291 291 291 291 291 291 291 290 290 290 290 289 289 289 289 288 288 288 288 288 288 288 288 288 288 288 288 289 289 290 291 292 293 294 296 296 297 298 299 298 298 299 299 298 296 296 295 296 295 295 295 295 295 295 295 295 296 296 296 296 296 296 296 296 296 296 296 295 295 295 295 296 296
297 297 297 296 296 296 295 295 294 294 294 294 293 292 291 291 291 290 290 290 290 290 290 290 290 290 290 289 289 289 288 288 288 288 288 288 288 288 289 289 289 290 290 290 291 292 293 294 295 296 297 298 298 298 299 298 297 296 296 295 295 295 295 295 295 295 295 295 295 294 294 294 294 295 295 296 296 296 296 296 296 296 296 295 295 296 296
297 297 296 296 296 296 295 295 295 294 294 293 293 292 291 290 290 289 289 289 289 289 289 290 290 290 290 290 289 289 288 288 288 288 288 288 289 289 289 290 290 291 291 291 291 292 293 294 295 295 296 297 298 299 298 297 296 296 296 296 296 296 296 296 296 296 296 296 296 295 295 294 294 294 295 296 296 296 296 296 296 296 296 295 295 296 295
297 296 296 296 295 295 295 295 295 294 294 293 292 291 290 289 288 288 289 289 290 290 289 289 290 290 290 289 289 289 288 288 288 288 288 289 289 289 290 290 291 291 292 292 293 293 293 294 295 296 296 297 298 298 297 296 296 296 296 296 296 297 297 297 297 297 297 297 297 297 296 296 296 296 296 296 296 296 296 296 296 296 296 296 296 296 295
296 296 296 295 295 295 295 295 294 294 293 292 290 290 289 289 288 288 289 290 290 290 290 289 289 289 289 289 289 288 288 288 288 288 289 289 290 290 290 291 291 292 292 293 295 295 294 294 295 296 297 298 298 298 296 296 297 297 297 297 297 297 297 297 297 297 297 297 297 298 297 297 297 297 297 297 297 297 297 297 296 296 296 296 296 296 295
296 295 295 295 295 295 294 294 294 293 291 291 290 290 289 289 289 289 290 290 291 291 290 289 288 288 288 289 288 288 288 288 289 289 289 290 290 290 291 292 292 293 294 295 295 295 294 294 296 297 298 298 298 297 296 296 297 297 297 297 297 297 297 297 297 297 297 297 298 298 298 298 298 298 298 297 297 297 297 297 296 296 296 295 295 295 295
295 295 295 295 295 294 294 294 294 292 291 292 292 292 291 290 290 290 290 290 291 291 290 289 288 288 288 288 288 288 288 289 289 289 290 290 290 291 292 293 293 295 295 296 296 296 295 296 297 298 298 298 298 297 296 297 297 297 297 297 297 297 297 298 297 297 297 297 297 298 298 298 298 298 298 298 297 297 297 296 296 295 295 295 295 295 295
295 295 295 295 295 294 294 294 293 292 292 293 293 293 292 291 291 290 290 290 290 291 291 290 289 288 287 287 287 288 289 290 290 290 291 291 291 292 293 293 294 295 295 295 296 297 297 297 298 298 298 298 297 296 296 297 297 297 297 297 297 297 297 298 297 297 297 297 297 297 297 297 297 297 297 297 297 296 296 295 295 295 294 294 294 295 295
294 294 295 295 295 295 294 294 293 292 292 292 292 292 291 291 290 290 289 288 289 291 291 290 290 289 288 286 286 288 290 291 291 291 291 291 291 292 293 293 293 294 294 295 296 297 297 298 298 298 298 297 297 297 297 297 297 297 297 297 297 297 297 297 297 297 297 297 297 297 297 296 296 296 296 296 295 295 294 294 294 294 294 294 294 294 294
295 294 295 295 294 294 293 293 293 292 292 292 292 292 291 290 290 289 288 287 289 291 291 291 291 290 288 286 285 286 288 291 292 292 292 292 292 293 293 293 294 294 294 295 296 297 297 297 297 297 297 297 297 297 297 297 297 297 297 297 297 297 297 297 297 297 297 296 296 296 296 296 296 296 295 295 295 294 294 294 294 294 294 294 294 294 294
295 295 295 295 294 293 291 291 291 291 291 292 292 291 291 290 289 288 287 286 288 291 291 291 291 290 289 286 285 286 286 288 290 291 292 292 293 293 293 293 293 294 294 295 295 296 296 297 297 297 297 297 297 297 297 297 297 297 297 297 298 298 297 297 297 297 297 296 296 295 295 295 295 295 295 295 294 294 294 294 294 293 293 293 293 293 293
295 295 295 294 294 293 291 291 291 291 291 292 291 291 290 289 289 288 287 286 287 290 291 291 290 290 288 286 285 285 286 287 288 289 290 290 291 291 292 292 292 293 294 295 295 296 296 296 296 297 297 297 297 297 297 297 297 297 297 298 298 297 297 297 297 297 296 296 296 295 295 295 295 295 295 295 295 294 294 294 293 292 292 292 292 291 292
295 295 295 294 294 293 293 293 293 292 292 292 291 290 290 290 289 289 287 286 286 288 290 290 290 289 288 286 285 285 286 286 287 288 288 289 289 290 290 291 291 292 294 295 295 295 295 296 296 296 296 296 296 297 297 297 297 297 297 298 298 297 297 297 296 296 296 295 295 295 295 295 295 295 295 295 294 294 294 294 293 292 291 291 291 290 291
296 296 295 295 294 294 294 294 294 293 292 292 291 291 291 291 290 289 288 287 286 286 288 289 289 289 288 286 285 285 285 286 286 286 287 287 288 289 289 290 290 291 292 293 294 295 295 295 295 295 296 296 296 296 297 297 297 297 297 297 297 297 297 296 296 295 295 295 295 295 295 294 294 294 294 294 294 294 294 293 292 291 290 290 290 290 291
296 296 295 295 294 294 294 295 295 294 293 292 292 292 292 291 290 289 289 289 288 287 286 287 287 288 287 286 285 285 285 285 285 286 286 287 287 287 288 289 290 290 290 290 291 292 293 294 294 295 295 295 296 296 297 297 297 297 297 297 297 296 296 296 295 295 295 295 295 294 294 294 294 294 294 293 293 292 291 290 290 290 290 291 291 291 291
296 296 295 295 295 294 294 295 295 294 294 292 292 292 293 292 290 289 290 290 290 289 288 287 286 286 286 286 285 285 285 285 285 285 285 286 286 286 286 287 288 288 288 288 289 289 290 291 292 293 294 295 295 296 296 296 296 297 297 296 296 296 295 295 295 295 295 295 294 294 294 294 293 293 293 292 291 290 290 290 290 290 291 291 291 291 291
296 296 295 295 294 295 295 295 294 294 294 293 292 292 293 292 291 290 290 291 291 290 290 288 287 286 286 285 285 285 285 285 285 285 285 285 285 285 285 286 286 286 287 287 287 288 288 289 290 291 292 293 293 294 295 295 295 296 296 295 295 294 294 294 294 293 293 293 292 292 292 291 290 290 290 289 289 289 290 290 291 291 290 290 290 290 291
296 296 296 295 295 295 295 295 294 294 294 294 294 293 293 292 291 291 291 291 291 291 290 290 289 287 286 286 285 285 285 286 286 285 285 285 285 285 285 285 286 286 286 286 286 287 287 288 288 289 289 290 290 291 291 292 292 292 292 292 292 292 291 291 291 290 290 289 289 289 288 288 287 287 288 288 289 289 290 290 290 290 290 290 290 291 291
295 296 296 295 295 295 295 295 294 294 294 294 294 294 293 293 292 291 291 291 291 291 291 290 290 289 287 286 286 286 286 286 286 285 285 285 285 285 285 285 285 285 286 286 286 286 286 286 287 287 288 288 289 289 289 289 289 289 289 289 289 289 289 288 288 288 288 288 287 287 287 286 286 286 287 287 288 288 289 289 290 290 290 290 291 291 291
295 295 296 296 296 295 295 295 294 294 294 294 294 294 294 293 292 292 292 291 291 291 291 290 290 290 289 287 286 286 286 286 286 286 286 285 285 285 285 285 285 285 285 285 285 285 286 286 286 286 286 286 287 287 288 288 288 288 288 287 287 287 287 287 286 286 286 286 286 286 287 286 286 286 286 286 286 287 288 289 289 290 290 290 290 290 291
294 295 295 295 296 296 296 296 295 295 295 294 294 294 295 294 293 292 292 292 291 291 291 290 290 290 289 288 287 286 286 286 286 286 286 286 285 285 285 285 285 285 285 285 285 285 285 285 285 285 285 285 285 286 286 286 286 286 286 286 286 286 285 285 285 285 284 284 285 286 286 286 286 285 285 285 286 287 287 287 288 289 289 288 289 289 289
294 294 294 295 295 295 296 296 296 295 295 295 295 295 295 294 293 292 292 292 291 291 291 291 291 291 290 289 287 287 287 287 286 286 286 286 286 285 285 285 285 285 285 285 285 285 285 285 285 285 285 285 285 285 285 285 285 285 284 284 284 284 284 284 284 284 284 284 284 285 285 285 285 285 284 285 285 286 286 286 287 287 287 287 287 287 287
Wind_Speed
2 2 2 4 5 4 3 5 4 4 5 6 6 2 1 4 5 3 5 3 5 1 2 2 2 3 6 6 6 10 14 14 16 18 20 22 21 21 20 20 19 18 17 15 15 14 11 10 11 11 11 13 14 16 17 16 15 13 11 11 10 10 10 10 12 14 13 12 12 13 13 13 12 11 11 12 12 12 13 14 14 14 14 15 15 16 17
3 4 5 7 7 5 4 3 1 0 3 6 5 2 2 6 5 2 3 8 7 3 4 4 4 9 14 14 11 11 10 7 6 8 11 16 20 22 23 23 22 20 19 18 17 17 15 13 12 10 9 9 11 14 15 14 14 13 12 11 10 10 8 8 8 9 9 8 8 8 8 7 7 6 6 5 5 5 5 6 6 6 7 7 7 8 9
3 4 6 7 7 6 5 4 3 1 3 4 4 3 3 6 5 3 7 10 6 5 5 6 7 13 19 19 17 17 17 13 8 6 3 8 13 18 22 24 23 21 21 21 20 19 19 17 14 12 10 8 8 10 10 11 11 11 10 10 11 11 10 9 9 8 8 7 6 7 7 6 7 7 6 6 6 5 5 5 5 6 5 5 4 5 5
3 3 5 5 5 7 6 6 8 6 5 5 4 3 3 3 5 4 8 7 1 5 5 8 11 16 19 17 17 18 19 17 14 12 8 4 13 17 19 21 21 19 19 20 20 19 18 17 15 13 11 9 8 7 6 5 5 6 6 7 9 10 10 10 10 9 8 7 7 6 6 6 6 6 5 6 6 6 6 6 6 6 6 6 6 5 5
4 3 4 5 5 7 4 4 5 5 2 7 7 6 7 4 5 5 4 2 3 4 3 8 10 13 15 15 17 18 18 19 17 15 12 6 9 15 16 18 18 17 16 15 16 16 16 15 14 12 11 10 8 6 4 4 5 6 6 6 6 7 8 8 9 8 8 9 8 8 7 7 7 7 7 6 6 7 7 8 8 8 8 8 8 8 7
3 4 3 5 4 2 3 5 4 2 6 12 11 7 8 8 5 5 4 1 2 3 5 8 8 10 13 18 22 22 21 23 23 20 17 12 10 12 13 13 13 13 13 12 12 12 12 12 12 12 11 9 7 5 4 4 5 5 6 5 4 5 5 5 5 5 6 7 8 8 8 8 8 8 8 8 8 8 8 8 8 8 8 9 9 10 10
2 1 5 4 2 5 5 4 3 6 12 15 15 10 9 10 7 6 6 5 5 6 7 8 11 15 19 24 28 26 24 24 24 23 21 18 15 14 14 14 14 14 12 11 10 10 10 9 9 10 10 9 8 7 7 6 6 5 5 4 3 4 3 2 3 4 4 5 6 7 8 8 8 8 8 8 8 7 7 7 7 7 8 8 9 9 11
2 1 4 3 5 4 1 4 5 6 7 8 11 11 10 9 6 5 5 6 6 10 12 8 11 16 22 27 28 27 23 23 24 23 21 19 17 14 12 12 13 14 12 11 9 7 6 7 8 8 10 10 10 10 9 8 7 7 6 5 3 2 2 2 3 4 4 4 5 6 7 7 7 8 9 9 8 7 7 7 8 9 9 10 10 9 10
3 4 2 2 2 2 2 4 3 2 2 2 4 6 4 6 7 6 4 5 7 11 15 10 6 10 18 19 20 22 21 20 21 22 20 18 16 14 11 7 8 8 4 2 2 2 3 5 7 7 6 5 6 8 9 9 8 7 7 6 5 4 4 3 4 4 5 5 5 5 6 6 7 8 8 8 9 10 11 11 12 12 12 12 12 12 12
3 5 2 1 2 4 3 3 5 5 6 3 5 6 3 4 9 9 5 5 8 9 14 14 7 7 10 7 9 17 19 16 16 18 17 17 15 13 11 9 6 5 1 3 3 6 9 8 4 2 1 2 2 5 7 8 8 8 8 8 7 6 5 5 5 6 6 7 7 7 8 8 8 9 9 10 11 12 14 15 15 15 15 15 15 14 14
3 5 3 3 4 4 4 5 8 12 13 5 4 6 3 4 9 11 7 7 10 9 11 15 13 9 5 2 7 14 16 14 14 13 13 14 14 12 11 9 7 5 2 4 4 1 5 6 7 8 8 5 3 5 7 8 9 10 10 10 10 9 8 9 9 9 9 10 11 11 12 12 12 13 13 14 15 15 16 17 17 17 17 16 16 15 16
2 3 3 1 2 1 3 5 8 15 16 7 4 4 1 5 9 11 10 11 13 13 14 15 11 6 3 2 8 13 12 10 11 11 11 12 12 11 10 9 8 7 5 3 2 3 4 4 4 6 8 8 7 7 7 8 10 10 9 10 11 11 12 12 12 12 13 13 13 14 14 14 14 14 14 15 16 15 15 15 17 17 17 17 16 16 16
2 3 3 2 0 1 3 6 11 15 11 5 4 4 5 4 7 13 16 15 15 16 17 15 9 6 7 8 10 12 10 10 10 10 10 10 9 9 10 9 8 8 8 9 9 8 7 7 7 7 8 9 10 10 9 8 9 10 10 11 11 11 13 13 14 15 15 15 15 15 15 15 15 15 15 15 16 16 16 16 17 18 18 18 17 16 16
2 2 3 2 1 1 5 7 11 12 5 2 2 3 0 5 9 13 16 16 15 15 15 14 11 11 12 12 12 12 11 12 12 11 11 10 10 10 9 9 10 10 11 12 12 11 10 10 11 10 11 13 13 13 12 10 9 9 10 11 11 13 15 16 17 17 17 16 15 15 16 17 18 19 19 19 20 19 19 19 19 18 18 19 18 18 19
2 2 3 3 1 3 7 7 8 9 5 2 2 5 9 11 11 12 13 13 13 13 12 12 12 12 12 13 13 13 13 13 13 13 13 12 12 13 12 12 12 12 12 13 13 12 12 13 15 15 16 16 16 16 16 15 13 12 11 11 12 14 16 17 18 19 18 17 17 18 19 20 21 21 21 21 21 20 19 19 18 18 19 20 20 21 21
2 2 2 1 3 4 10 9 6 7 10 11 11 11 10 10 11 11 10 10 11 12 12 12 13 13 14 14 15 15 15 15 16 16 16 16 16 15 15 15 15 14 15 15 15 14 14 14 15 16 18 19 18 17 18 18 16 14 13 13 14 15 15 16 17 18 19 20 21 21 20 20 20 19 18 18 18 18 18 18 18 20 20 21 21 22 21
3 3 1 1 1 10 18 18 14 13 15 16 14 12 10 10 10 10 9 9 10 11 12 13 14 14 16 16 17 18 19 18 18 19 19 19 19 19 18 18 17 17 17 16 16 16 15 14 15 16 17 18 18 17 18 18 16 14 13 14 15 16 16 16 17 18 19 20 20 20 20 20 21 20 20 20 20 19 20 21 22 23 21 20 21 22 21
4 6 6 5 9 15 18 17 16 17 16 15 13 11 10 9 8 9 9 9 9 11 11 13 13 14 15 17 18 19 20 21 21 21 22 22 22 23 23 22 22 22 21 21 20 18 14 11 12 14 14 14 16 16 17 18 17 16 16 16 16 17 17 17 17 18 19 19 20 21 22 23 24 25 25 26 26 26 26 25 25 25 24 21 21 21 21
3 3 6 6 7 13 17 18 17 17 16 14 12 10 9 8 7 8 10 10 11 12 13 14 15 15 15 16 17 18 19 21 22 22 22 23 23 24 24 25 25 25 25 25 25 23 18 11 9 10 10 11 12 13 14 15 17 18 19 20 20 20 21 21 21 22 22 23 24 24 25 26 27 28 29 29 29 28 27 24 23 23 23 21 21 21 21
3 4 2 4 3 8 16 18 14 15 14 12 10 9 9 9 9 10 11 12 13 14 14 14 15 16 17 17 18 19 19 20 20 20 21 22 22 22 22 22 23 25 26 27 27 26 24 19 14 12 12 12 13 14 14 15 16 17 18 19 20 21 22 22 24 25 26 26 27 27 28 29 30 30 29 28 28 26 25 23 22 22 21 20 20 20 20
3 1 3 7 2 3 12 15 12 11 12 10 11 11 11 11 12 12 12 12 12 13 14 14 15 16 17 18 18 19 20 21 21 22 22 22 22 21 20 20 20 22 24 26 27 28 28 25 22 20 17 16 17 19 19 19 19 19 20 20 20 20 21 21 23 24 25 26 27 28 29 30 31 31 30 29 29 28 28 28 27 26 25 24 22 20 21
2 2 3 4 1 2 8 13 12 10 10 9 11 12 12 11 11 12 14 14 13 14 14 15 16 17 18 18 19 20 21 22 22 23 24 24 24 23 23 22 22 23 23 25 27 28 30 28 25 24 23 21 21 21 21 21 20 20 20 20 19 19 20 21 22 23 25 26 27 29 31 31 32 33 33 33 33 34 32 29 26 25 25 24 22 22 21
2 3 2 2 2 2 6 10 10 9 8 10 11 11 10 10 11 12 13 14 15 16 15 15 15 16 18 19 20 21 22 23 23 23 23 23 24 24 24 24 25 25 26 26 27 27 26 24 22 21 22 23 23 23 22 21 20 19 19 19 19 20 21 22 23 25 27 29 30 31 32 33 33 34 35 36 37 35 30 25 22 21 21 22 23 22 17
2 1 1 1 2 2 5 7 8 8 9 11 11 9 9 10 11 12 13 14 14 15 16 15 15 16 18 19 19 21 22 23 24 24 25 24 24 23 21 20 21 22 23 24 24 23 20 18 17 19 19 19 21 22 22 22 21 19 19 19 20 21 23 24 26 27 28 30 31 32 33 34 35 36 35 35 34 30 24 20 18 19 20 20 20 18 13
4 2 1 2 4 4 6 7 9 10 11 11 10 9 10 11 12 13 15 15 14 15 16 17 17 18 20 21 21 22 23 24 24 25 27 28 27 25 22 18 17 17 19 19 20 18 15 12 12 15 17 17 18 19 19 19 19 18 18 19 21 24 26 27 28 29 29 29 30 31 32 33 33 32 30 28 26 22 20 18 18 18 18 16 15 13 11
4 0 3 5 5 5 6 8 9 9 10 10 9 9 10 12 13 15 15 14 15 15 15 15 17 18 19 21 22 23 24 25 24 25 27 28 29 29 27 24 20 18 18 18 17 16 15 13 11 11 13 15 16 15 15 16 16 17 19 21 24 25 26 26 27 27 26 25 24 23 23 24 24 23 21 21 20 20 20 20 19 17 14 12 11 12 13
1 4 5 4 4 4 4 5 5 5 7 8 7 9 12 13 14 13 12 11 12 13 13 13 15 16 17 17 18 19 20 21 21 22 23 25 26 26 25 25 24 22 22 21 20 18 17 16 14 12 10 11 13 13 14 15 16 18 19 20 21 21 21 22 22 21 19 17 14 13 14 16 15 15 16 18 19 20 20 20 20 20 20 18 17 16 17
3 4 3 2 2 3 2 2 3 5 5 6 9 12 14 12 10 10 9 10 11 13 13 14 15 16 17 18 18 19 19 21 22 23 23 23 22 21 19 18 20 22 24 25 25 23 21 19 18 16 13 12 13 13 13 14 15 16 16 17 16 16 16 16 14 13 12 12 10 8 9 11 11 13 16 19 21 21 21 21 23 25 25 24 22 20 19
4 3 2 1 2 2 1 1 2 4 5 7 11 14 11 8 8 8 8 9 11 12 13 14 15 16 17 18 19 19 20 21 23 23 22 21 21 20 19 18 20 23 25 27 29 28 26 23 21 18 15 13 13 12 12 13 13 13 13 13 12 10 9 8 7 8 9 9 7 5 5 8 10 12 16 20 21 22 23 24 25 25 24 24 24 22 20
4 3 2 1 2 2 2 2 4 5 6 8 12 12 8 6 7 7 7 8 10 11 12 14 16 17 18 20 20 19 19 20 20 20 20 21 21 20 19 18 19 21 24 26 28 28 27 26 24 20 16 13 12 11 10 11 11 10 9 8 6 4 4 3 2 3 2 2 4 6 7 9 12 15 18 21 23 24 25 25 24 23 22 22 22 21 21
4 4 2 2 3 3 4 5 4 4 4 8 11 9 6 5 5 6 7 8 9 10 12 15 17 18 19 21 22 20 18 18 17 17 19 20 20 19 18 17 17 17 18 19 22 23 23 25 25 21 16 13 12 11 10 10 10 8 6 6 6 6 5 4 4 6 9 13 17 18 18 19 21 22 23 24 25 25 24 23 23 22 21 21 21 20 19
4 4 4 3 3 4 4 4 3 3 2 8 9 6 6 6 6 8 9 10 11 12 13 15 17 19 19 20 24 25 21 18 16 16 17 17 17 17 18 17 17 16 15 14 14 15 18 21 22 20 17 15 14 13 11 10 10 9 8 9 10 11 11 11 12 14 15 17 19 19 19 19 20 20 20 20 21 22 22 22 22 21 20 20 20 19 17
5 5 4 4 3 3 4 2 3 2 4 7 6 4 4 5 6 8 11 13 13 14 14 15 17 18 18 19 24 26 21 16 14 14 13 13 13 13 14 14 15 14 13 13 12 11 14 17 17 19 20 19 17 15 13 13 13 12 12 13 15 16 16 16 15 14 14 14 15 15 16 16 17 17 17 17 18 20 20 20 19 18 18 18 18 17 15
4 4 4 4 3 3 3 3 3 1 5 5 2 2 3 4 6 9 11 13 15 15 16 15 15 16 17 18 22 23 18 12 10 11 11 10 10 9 8 10 11 11 11 11 9 8 10 13 17 21 22 21 19 17 17 17 17 15 16 17 17 16 15 12 9 8 9 9 11 13 14 15 15 16 17 18 18 18 17 16 16 15 15 15 15 15 15
4 5 5 4 3 3 3 4 2 3 3 1 2 3 3 4 6 7 9 11 13 14 16 17 15 15 16 17 20 22 17 10 9 10 10 9 10 9 6 4 2 2 4 5 5 4 6 12 20 23 22 22 21 20 21 21 19 17 17 16 13 11 11 8 7 8 9 9 10 11 12 12 11 11 12 13 14 13 13 14 14 14 14 15 15 15 14
4 6 5 4 4 3 3 3 3 2 0 2 3 5 5 5 6 7 8 10 11 12 14 16 16 15 15 16 19 22 17 10 7 9 11 12 13 13 10 8 8 8 7 4 4 5 9 17 22 22 21 22 24 24 24 22 19 17 15 13 11 11 11 10 10 11 11 10 10 12 13 13 13 12 11 12 13 13 13 14 14 14 14 14 14 14 15
4 4 4 6 5 4 3 4 4 2 2 1 4 6 7 8 8 9 9 10 10 11 12 13 16 17 15 14 18 20 16 10 8 10 13 15 16 16 14 14 15 15 14 13 13 12 15 18 19 20 22 25 26 25 23 19 17 16 15 13 12 12 11 10 11 11 10 9 10 12 13 15 15 14 14 14 15 15 15 14 14 13 13 13 13 14 15
2 4 7 7 5 5 4 4 4 4 2 2 5 5 7 8 9 9 11 10 9 10 10 11 15 18 17 15 16 19 17 12 10 12 15 17 19 19 18 18 18 18 16 16 15 14 15 16 18 22 25 26 25 24 21 17 17 17 16 14 12 11 10 10 10 10 9 9 10 10 11 11 12 13 14 16 16 15 14 14 13 13 13 13 13 13 13
3 7 8 6 5 5 5 4 5 5 1 3 4 6 8 8 8 9 11 10 7 7 9 10 13 18 19 16 15 16 17 15 13 14 17 19 21 21 20 19 18 17 15 13 13 14 15 16 19 22 23 22 21 21 21 20 19 18 16 13 11 10 10 10 10 9 8 8 9 10 11 11 11 13 14 15 14 14 13 13 13 13 12 12 12 11 11
4 6 7 5 4 4 4 4 5 4 2 1 3 6 9 9 8 9 10 7 4 4 7 9 11 16 19 17 14 13 14 14 15 16 18 21 23 23 22 21 19 16 14 12 10 11 12 14 15 17 18 18 18 20 22 22 20 18 15 12 10 11 12 11 10 9 8 8 9 11 13 13 13 14 14 14 14 14 13 12 12 11 11 11 10 10 10
5 5 5 4 4 3 3 3 2 1 1 0 3 6 9 9 8 8 9 8 4 2 5 8 11 14 18 17 14 12 12 12 13 14 16 19 22 24 25 24 21 19 16 14 13 11 11 12 15 17 18 17 16 18 21 21 20 18 14 11 10 12 13 12 10 9 8 8 9 12 13 14 15 15 14 13 12 11 10 9 9 9 9 9 9 9 9
6 6 6 5 5 5 4 5 3 2 2 2 4 6 8 8 7 7 9 9 6 2 4 7 9 12 15 15 13 12 12 12 12 12 14 17 20 22 23 22 21 20 18 17 15 14 14 13 14 16 17 16 15 16 18 20 20 17 13 11 12 14 13 11 9 9 8 9 10 12 12 12 12 12 11 10 9 8 8 7 7 7 7 7 7 7 8
8 8 8 7 7 6 5 3 2 1 1 3 6 7 6 6 7 8 9 10 8 4 4 5 7 9 12 12 12 11 12 12 12 12 13 15 16 17 18 18 17 17 18 18 17 16 16 15 15 14 15 16 16 15 16 18 17 14 11 11 13 14 12 10 9 9 9 10 11 11 11 11 10 9 9 9 8 8 7 8 8 8 7 7 7 6 7
9 10 10 8 7 6 6 4 3 4 4 3 5 6 5 6 7 7 7 9 9 7 5 5 6 8 10 11 11 11 11 12 12 12 12 12 14 14 14 13 13 13 14 15 16 16 15 15 15 14 14 15 16 16 16 16 14 12 10 10 11 11 11 10 9 9 10 10 10 10 10 9 9 9 8 8 8 9 9 9 8 8 7 7 6 5 6
9 11 12 11 9 7 7 6 5 5 5 5 4 4 5 6 6 5 6 8 10 10 8 7 7 8 9 10 10 10 11 11 11 11 10 11 13 13 11 9 9 10 11 12 13 15 15 14 13 12 12 12 13 14 15 15 14 12 10 9 9 9 9 9 8 8 8 8 8 8 9 9 9 8 8 8 7 7 7 7 6 6 5 4 3 4 5
9 11 13 13 12 10 8 7 6 5 6 6 6 6 6 5 4 3 4 5 8 10 10 9 8 8 9 9 9 9 9 10 10 11 11 11 12 12 11 9 8 8 9 10 11 12 12 11 10 10 10 9 10 11 12 12 12 12 10 9 9 9 9 9 8 8 8 8 8 8 8 8 7 7 6 6 5 5 5 5 5 4 4 4 3 3 4
8 10 12 14 15 13 11 11 10 9 8 9 9 8 8 7 3 1 3 4 5 7 8 9 9 9 9 8 8 8 7 8 9 10 11 12 12 12 11 10 10 9 9 9 10 10 9 9 8 8 8 7 8 9 9 10 10 9 9 9 9 9 9 9 8 7 7 7 7 7 7 6 5 4 4 4 5 5 5 5 4 4 3 2 2 1 2
8 9 10 13 15 16 15 15 15 15 14 12 11 9 10 9 5 1 1 2 3 4 6 8 9 9 8 8 7 7 7 7 8 9 10 11 11 11 11 11 11 11 11 10 10 10 9 8 7 7 6 6 6 6 7 7 7 7 7 7 7 7 6 5 5 4 4 4 4 4 5 5 5 6 6 6 6 5 5 5 4 3 3 3 3 3 3
9 9 9 11 15 18 19 19 19 18 17 15 12 10 9 9 7 5 3 1 1 2 3 6 8 8 7 7 7 6 7 7 8 9 10 10 10 10 11 11 11 11 11 11 11 11 10 9 8 7 7 6 5 5 5 4 5 5 4 4 4 4 3 2 1 1 2 2 4 4 5 7 8 9 8 7 7 7 6 6 5 5 6 5 5 5 5
10 10 11 12 14 17 18 19 19 19 19 17 14 11 10 10 10 8 6 4 4 4 4 5 7 7 6 5 5 5 6 6 7 8 9 11 11 11 11 11 11 11 11 10 11 11 11 10 10 9 8 7 6 6 5 5 4 3 3 2 2 1 1 2 3 3 4 4 6 7 8 10 10 9 8 7 6 6 6 6 7 8 8 7 7 8 8
11 12 13 13 13 14 15 15 15 16 17 17 16 14 12 13 14 13 9 7 6 6 6 6 7 7 5 4 3 3 4 5 5 6 7 9 10 11 10 10 11 11 11 11 11 11 11 10 9 9 9 8 7 7 6 6 5 4 3 2 1 1 2 2 3 4 4 4 5 6 8 9 9 8 7 6 5 5 5 6 8 9 9 9 10 11 11
13 13 13 13 13 14 14 13 13 14 15 17 17 16 14 14 16 16 14 11 10 9 8 8 8 8 6 4 3 2 1 2 2 3 5 6 8 9 9 9 9 9 10 10 10 10 10 10 9 9 9 8 8 8 7 7 6 5 4 4 3 2 3 3 3 4 4 5 5 5 6 6 5 5 4 4 3 3 4 6 7 9 10 10 11 11 12
Wind_Direction
126 117 50 32 55 70 54 35 14 6 40 70 87 81 194 131 117 214 233 115 102 192 305 52 101 142 136 136 144 151 154 158 162 161 158 159 162 166 168 169 169 165 158 152 148 144 141 137 132 127 127 131 134 135 134 135 136 135 138 146 148 153 166 180 195 208 213 215 221 227 232 235 233 234 238 239 238 240 245 248 250 253 257 258 260 262 263
31 32 49 53 52 49 45 44 9 260 96 104 114 111 76 91 95 161 137 91 72 12 344 357 36 78 92 98 100 98 94 106 146 160 164 166 163 162 164 163 162 164 164 162 160 158 155 152 148 143 141 140 140 142 141 139 139 139 143 148 145 143 145 149 158 172 178 180 188 195 196 198 198 201 203 203 203 209 217 227 234 240 247 251 259 268 272
341 354 54 58 59 65 46 6 342 23 92 80 71 41 39 71 76 58 75 79 54 357 359 11 46 71 75 74 73 70 68 73 90 102 148 196 187 173 166 162 158 157 159 159 159 160 159 158 156 153 151 149 145 144 143 143 145 147 152 159 159 156 157 161 163 166 170 175 184 190 192 196 200 201 203 206 209 209 210 218 227 233 239 250 266 284 297
292 313 55 48 49 64 48 8 351 359 44 67 59 29 29 104 132 83 60 72 338 304 358 43 58 65 65 61 57 58 60 64 72 80 88 175 204 191 172 165 162 158 156 157 157 157 158 160 161 162 162 159 151 143 140 149 161 159 156 165 173 173 171 172 174 174 176 184 191 197 204 209 210 210 214 219 223 227 230 235 241 246 251 255 263 273 285
271 288 69 66 49 40 13 321 314 313 63 87 68 27 13 40 116 109 94 140 242 281 25 68 62 57 61 61 54 52 58 65 70 75 75 102 186 183 170 166 164 159 155 154 154 156 159 163 164 165 166 165 161 158 161 179 176 152 131 126 149 168 173 176 180 184 191 199 203 206 212 220 226 230 233 236 242 247 252 256 258 262 267 267 268 272 274
248 277 55 61 45 36 252 262 284 256 114 94 79 45 16 23 54 94 118 142 318 358 57 84 86 77 75 69 60 58 62 68 73 74 73 88 126 143 151 155 153 155 159 152 143 143 148 155 160 158 156 157 160 159 159 173 171 151 133 124 126 139 153 172 193 203 207 206 208 212 219 227 235 240 243 246 251 256 259 264 268 271 274 274 274 274 274
189 293 55 58 258 218 216 269 7 86 104 96 86 64 31 25 32 49 53 27 2 17 43 85 101 91 80 69 59 58 63 65 68 68 68 78 98 113 126 130 122 121 130 133 130 129 132 138 143 143 143 145 154 158 155 159 166 165 166 158 134 132 149 175 220 237 235 218 213 221 232 239 241 242 246 249 253 256 259 264 274 282 285 284 282 277 272
150 99 86 149 227 235 270 342 16 73 85 76 74 58 26 13 14 26 33 10 358 15 32 73 111 92 76 66 56 54 59 58 58 63 66 71 82 92 107 128 131 122 113 110 107 106 121 128 127 137 147 151 157 162 164 169 169 168 172 173 168 185 206 215 222 234 241 232 220 221 232 245 254 260 265 267 270 277 281 281 282 284 284 284 285 282 276
139 141 159 183 237 284 355 348 339 40 7 338 107 94 44 7 6 14 32 14 4 18 30 47 115 96 71 60 44 43 49 49 52 59 62 65 73 77 81 111 149 149 140 122 74 314 245 161 126 119 130 150 167 171 176 186 188 183 183 187 195 218 237 236 224 230 240 242 236 234 238 250 262 269 272 275 280 287 291 290 289 286 285 285 287 287 286
113 117 141 141 185 221 239 288 292 308 324 290 155 116 65 350 357 11 40 27 10 20 30 33 52 79 67 43 12 26 33 33 43 50 51 54 61 63 64 76 102 109 142 212 228 269 264 247 234 225 151 127 187 202 207 216 217 217 220 217 214 228 248 255 256 256 253 250 251 252 253 256 261 266 269 271 275 278 280 282 282 280 281 283 285 286 286
118 120 142 169 184 214 245 269 296 323 333 326 135 98 47 321 342 4 39 39 22 27 36 39 49 63 62 330 342 14 20 19 26 29 28 38 46 45 44 48 51 48 59 177 172 267 299 283 271 253 233 227 253 244 239 245 246 244 242 233 229 242 258 266 270 270 266 265 265 265 268 270 272 272 272 273 273 274 276 277 275 274 276 280 281 279 280
119 128 125 139 165 215 273 270 304 327 335 353 107 129 270 311 343 14 51 53 39 39 42 44 53 64 63 341 354 10 15 14 19 17 11 17 23 24 25 21 12 4 349 305 267 309 306 279 278 269 249 248 261 260 253 255 256 259 261 252 247 255 264 269 271 271 271 270 270 273 278 279 276 270 268 271 273 275 277 276 275 276 280 284 283 278 276
54 95 101 92 163 302 289 293 321 331 338 28 95 189 235 309 10 44 55 51 42 39 38 40 39 25 19 9 360 2 2 359 4 6 359 354 355 360 2 359 353 347 339 330 317 304 287 271 279 287 273 262 258 256 254 253 253 260 268 268 267 267 267 267 266 266 269 271 272 276 279 278 274 268 268 271 273 274 275 275 277 280 281 284 283 279 276
25 90 112 92 72 303 283 301 347 5 21 126 180 201 97 34 44 51 47 42 37 31 28 26 16 4 3 0 354 352 347 344 345 345 342 334 328 329 330 331 336 331 325 323 315 302 294 287 284 284 282 277 271 266 266 264 261 265 269 269 270 267 265 264 264 266 270 271 270 271 272 272 271 269 271 273 273 274 274 275 279 283 282 281 280 278 278
39 65 67 84 132 311 314 318 359 26 52 147 157 100 71 53 46 41 35 33 27 16 10 7 358 349 345 341 339 336 330 326 323 323 327 325 316 313 312 313 319 317 310 308 303 296 294 293 291 288 284 281 279 274 270 266 263 262 260 256 256 257 258 260 263 266 268 268 269 272 275 276 273 270 270 270 270 271 271 271 275 280 281 280 279 278 279
63 73 53 176 222 357 27 50 72 62 56 57 65 71 61 46 38 28 18 16 10 359 352 346 337 332 330 325 325 324 319 315 312 308 310 313 310 307 304 303 307 307 303 299 296 292 292 292 290 286 280 279 280 276 269 266 265 258 248 241 242 245 249 255 260 264 267 270 274 276 277 275 271 266 263 261 261 263 264 266 271 276 278 278 277 275 274
85 109 126 246 42 52 58 67 69 59 53 49 51 54 48 38 30 16 3 358 353 342 336 330 323 319 316 312 311 312 310 307 306 301 298 299 301 300 299 297 297 297 297 297 295 295 296 296 294 290 280 273 272 270 267 268 267 258 245 241 242 244 247 254 260 264 268 271 272 272 271 271 269 265 264 264 264 263 263 267 271 273 275 276 273 269 267
88 63 30 33 62 59 53 51 46 43 43 38 35 39 40 33 21 5 355 350 344 336 330 325 319 314 312 307 304 303 303 302 301 298 294 291 290 291 292 293 293 292 291 291 291 294 302 312 315 307 287 265 257 256 257 259 260 255 251 251 252 254 257 260 264 267 269 270 271 270 270 270 270 270 271 272 273 273 272 272 272 271 272 272 269 266 266
102 56 2 9 66 59 40 33 28 27 32 33 29 28 25 15 4 354 347 341 335 332 328 324 320 317 315 314 310 306 304 301 299 297 296 293 291 290 290 291 293 291 289 288 288 288 289 296 313 311 290 266 255 252 249 250 252 252 254 257 259 261 263 266 269 271 273 274 274 274 273 273 275 277 277 277 277 277 276 275 272 269 269 268 264 261 262
106 152 313 344 91 68 42 38 29 19 22 22 15 9 360 349 343 337 333 330 326 325 324 321 318 315 312 312 310 306 304 302 300 299 298 296 294 292 290 290 289 286 285 284 285 285 283 279 278 283 284 280 275 270 265 262 261 261 263 265 266 267 268 268 269 271 272 274 276 277 278 278 279 280 280 277 274 273 272 271 269 267 266 266 263 260 261
56 154 347 360 31 44 27 34 35 23 16 6 356 353 344 338 334 327 324 324 321 320 319 315 311 308 306 305 303 301 300 299 299 298 297 296 294 291 289 288 287 286 285 284 283 283 282 279 275 272 272 274 277 278 276 274 273 274 274 275 275 273 271 270 270 271 274 276 279 280 280 280 280 279 278 274 271 271 271 270 268 266 265 265 265 266 270
33 245 304 3 47 269 346 8 14 10 5 356 350 349 344 339 333 325 322 319 312 308 308 307 305 303 300 298 297 295 294 294 294 293 292 290 289 287 287 287 286 285 286 286 286 285 285 284 281 275 270 270 273 276 275 274 274 273 273 276 277 276 274 274 275 277 278 279 279 279 278 278 276 275 274 273 272 272 272 270 267 264 261 261 263 266 268
183 226 257 38 100 246 325 348 353 351 347 341 340 342 340 332 325 319 318 315 310 306 302 300 299 297 295 294 295 293 292 291 292 291 290 288 286 286 286 286 286 286 285 284 286 288 289 288 284 276 271 270 270 271 270 270 270 269 269 272 274 274 275 276 278 279 280 279 278 277 275 274 273 271 270 270 270 270 268 264 259 256 254 254 254 254 250
155 75 42 46 38 341 329 331 329 329 330 328 329 329 324 319 316 314 313 313 312 308 304 300 298 296 294 294 296 295 293 292 292 291 289 287 286 284 283 282 283 284 284 284 285 286 288 286 280 275 272 270 270 270 269 268 267 266 267 271 274 276 278 279 279 280 280 278 277 275 274 271 269 267 265 264 263 263 259 251 247 247 248 247 244 238 231
117 103 32 331 328 322 313 309 316 324 324 322 322 319 313 313 313 312 313 313 310 308 307 306 303 301 300 300 300 299 296 293 292 291 288 286 283 279 274 271 270 272 273 275 278 279 276 270 268 268 267 267 267 267 266 264 264 264 269 277 281 282 282 282 282 281 281 280 278 276 273 268 264 261 257 255 254 250 240 235 237 241 243 239 233 224 212
108 30 313 321 324 326 321 319 325 328 318 311 310 307 309 313 313 312 313 314 313 315 317 315 312 309 307 304 302 300 298 296 294 291 288 286 284 280 273 266 265 267 264 259 261 262 257 249 248 256 262 264 264 262 261 264 268 271 275 280 283 284 284 283 282 282 281 281 279 274 268 264 260 253 244 241 242 239 233 230 226 218 206 196 190 183 172
21 321 322 323 324 339 342 330 325 314 300 300 306 310 313 315 314 316 321 326 330 335 335 328 320 315 311 308 307 306 306 305 302 298 294 291 290 289 280 269 264 264 260 253 249 247 245 242 242 245 254 265 269 268 268 271 275 278 280 283 285 284 283 281 281 282 283 283 280 272 260 254 249 238 227 225 229 230 227 218 201 177 158 148 146 148 147
337 343 350 330 317 336 346 308 284 277 282 303 319 321 321 322 325 334 340 338 338 342 338 330 325 322 320 321 320 316 311 307 304 302 301 298 297 297 292 277 267 262 257 252 247 243 241 243 242 241 246 260 270 274 275 276 278 281 284 285 283 279 277 279 282 288 291 291 292 284 259 241 233 227 221 217 213 207 197 183 167 153 144 141 141 142 145
348 2 355 292 303 321 301 267 277 281 292 317 325 327 331 339 344 345 341 335 339 344 342 341 343 343 341 336 328 319 311 307 306 306 304 302 299 296 291 280 269 261 255 251 248 244 242 241 241 242 248 255 261 266 270 275 281 284 282 278 272 266 268 277 287 293 294 292 292 284 252 230 221 213 205 196 187 174 160 150 144 140 140 142 144 147 150
339 342 312 298 326 317 308 333 324 306 309 325 328 330 340 348 342 340 339 342 349 354 356 357 357 356 354 349 338 324 313 310 311 308 304 303 302 300 296 288 276 266 257 251 249 247 244 239 238 239 240 239 242 254 265 271 275 272 262 250 237 223 225 247 277 293 282 200 149 145 156 162 161 159 156 152 147 142 137 135 135 136 139 144 146 147 148
312 311 288 302 323 313 315 326 311 285 313 337 334 333 342 350 347 350 352 353 356 359 1 1 358 354 353 352 348 338 324 316 315 311 307 306 303 299 298 297 291 285 275 263 255 250 244 238 233 228 221 217 223 238 256 260 252 235 206 174 152 143 144 142 126 120 123 123 120 118 121 126 130 132 133 133 134 135 136 136 136 137 141 145 147 148 148
298 298 279 284 296 289 297 307 267 214 322 339 333 335 351 1 4 6 6 6 4 357 354 357 357 352 346 345 348 346 335 321 318 317 312 310 305 299 296 294 292 292 291 282 270 256 244 237 228 216 207 206 213 225 239 236 214 187 160 143 135 128 124 123 122 120 117 116 117 118 121 128 133 136 136 135 136 137 138 137 137 140 145 150 153 155 154
290 286 266 264 270 259 260 254 200 201 328 336 336 349 6 11 19 22 22 21 14 4 357 353 351 348 343 341 346 347 339 324 322 327 324 319 316 308 300 297 296 292 289 289 284 265 246 235 218 202 197 199 205 214 217 203 184 169 156 146 138 130 125 123 119 113 107 108 116 123 129 137 145 148 146 145 144 143 143 142 142 143 148 153 159 162 164
282 279 274 279 275 250 224 195 186 256 322 329 344 36 31 28 30 29 26 23 17 10 3 355 346 346 347 344 344 347 344 336 340 350 352 348 345 335 317 305 300 294 293 296 290 266 240 218 194 184 188 194 196 199 196 184 174 166 157 149 142 137 135 129 115 106 107 113 124 133 137 140 144 144 144 146 147 147 148 151 153 156 160 164 168 173 177
283 295 294 279 239 202 192 196 228 304 319 314 99 61 31 16 15 17 17 16 11 6 4 360 350 347 350 349 348 351 354 351 356 9 17 20 22 25 21 358 321 291 294 291 280 261 226 192 177 175 182 187 188 188 186 179 172 165 160 156 152 148 145 133 115 116 122 123 129 139 142 143 144 147 151 154 154 152 151 154 160 168 172 174 178 183 184
283 293 273 220 187 179 195 232 283 311 120 118 61 30 11 357 357 360 3 6 4 360 2 3 356 350 353 355 355 358 1 2 11 30 42 45 46 52 61 74 89 98 103 111 113 123 151 162 167 172 178 181 183 184 182 177 171 166 163 159 150 139 132 124 121 126 131 129 128 129 129 129 132 138 147 156 160 159 157 158 164 170 171 173 179 181 178
285 272 208 187 191 211 233 265 273 224 167 86 9 7 0 352 352 353 352 354 354 353 358 3 2 360 2 3 2 6 13 21 34 48 58 58 58 62 71 80 88 93 97 99 102 116 139 154 164 171 176 178 180 181 178 173 169 165 162 156 145 134 127 125 125 125 122 119 122 128 131 130 129 129 135 149 159 164 165 166 165 164 163 164 170 174 174
247 185 180 192 216 233 249 269 245 206 185 356 346 344 346 345 345 345 342 338 340 347 353 357 2 6 10 8 6 14 26 38 48 59 65 65 64 65 67 71 75 78 84 94 109 128 146 158 166 170 171 172 177 178 173 166 163 161 158 155 149 142 136 134 131 124 117 115 122 132 137 139 138 140 146 155 162 165 165 165 164 162 161 164 170 176 180
188 181 192 211 236 250 252 240 214 202 200 358 340 334 340 341 335 334 335 332 334 349 354 352 357 7 14 14 13 20 33 45 54 63 69 70 70 70 70 70 71 71 75 90 114 133 147 159 168 171 169 169 174 175 168 161 158 158 157 156 154 153 153 150 143 136 133 135 140 145 147 148 151 153 155 159 161 161 160 162 165 167 169 171 176 184 191
209 201 210 228 258 263 246 217 205 211 225 328 326 328 337 340 334 335 342 348 350 351 354 357 1 8 13 16 20 28 39 48 55 62 68 73 75 76 76 75 76 77 79 85 101 123 143 157 163 165 165 166 166 163 160 159 159 158 156 154 155 159 162 162 158 153 149 149 153 158 160 160 161 160 161 162 163 163 164 166 171 174 176 180 188 196 204
229 215 216 239 252 233 183 149 154 191 175 87 319 324 333 341 345 351 3 14 16 343 349 2 9 11 13 17 24 33 41 49 54 56 59 65 70 73 72 72 75 80 85 88 93 104 124 140 146 147 149 151 152 153 157 163 166 165 160 158 160 161 161 163 165 164 160 159 160 163 165 166 167 168 169 171 173 176 180 186 191 194 196 200 206 214 221
228 220 221 232 230 204 158 128 111 81 50 6 333 327 335 349 3 14 19 22 25 12 349 0 10 15 15 18 26 37 43 48 53 54 53 56 61 65 66 67 70 76 83 90 96 100 104 115 129 138 144 147 150 156 163 168 171 170 167 163 162 162 162 165 169 171 173 175 174 174 175 177 177 177 180 185 190 196 202 210 217 218 218 218 218 216 219
224 223 225 228 225 211 186 155 140 147 308 334 340 341 347 5 20 26 27 28 30 30 13 10 18 24 21 20 27 40 47 48 51 54 56 56 59 60 61 63 66 71 77 84 91 95 99 104 114 127 140 148 152 158 165 170 171 171 167 162 162 164 164 166 170 175 180 184 184 184 186 189 191 195 199 203 210 218 225 234 240 241 245 250 248 234 223
226 225 228 231 234 226 214 208 219 231 241 281 333 346 353 10 22 30 37 38 36 32 27 23 28 34 32 26 28 42 53 54 53 54 58 62 64 63 61 61 63 66 72 79 85 89 93 98 104 115 131 143 149 155 161 166 168 168 164 161 163 165 165 168 174 180 185 189 191 193 196 201 207 213 218 224 232 238 242 248 252 254 257 261 258 241 224
231 228 229 233 239 233 221 221 233 236 238 254 293 324 339 358 16 32 47 49 43 36 32 28 28 36 41 37 33 41 54 61 61 61 62 67 71 71 69 66 63 61 63 70 79 84 89 93 100 110 123 135 146 153 157 159 164 170 171 170 172 174 175 178 185 190 196 202 206 208 210 215 220 226 234 242 244 241 240 240 238 235 233 232 225 210 206
241 234 230 234 238 235 225 227 236 241 246 253 263 284 308 328 357 31 46 48 44 36 29 25 25 31 40 45 45 47 53 62 68 68 65 67 72 76 75 74 71 65 61 63 68 74 80 86 96 107 119 130 142 151 155 159 165 171 173 174 178 180 181 185 192 199 208 218 224 227 233 240 243 245 247 241 224 208 201 197 192 185 182 187 193 197 204
252 238 231 231 233 232 233 239 239 235 238 245 253 268 286 295 302 38 49 45 42 32 23 20 22 25 33 45 57 61 59 61 70 76 73 70 71 73 73 72 70 68 67 68 70 75 80 86 93 103 115 128 140 147 151 156 163 167 170 174 177 178 180 186 191 196 203 211 216 221 227 231 228 218 204 187 176 169 162 158 154 145 138 139 138 142 163
268 257 246 234 229 229 235 243 242 235 233 237 243 257 271 274 263 220 83 36 26 16 6 5 10 17 25 36 50 64 67 64 70 82 85 82 76 74 74 73 70 67 65 67 72 79 87 95 104 112 121 131 138 140 142 146 152 157 163 168 172 176 181 187 193 199 204 203 200 199 195 181 165 158 156 155 153 145 139 138 135 120 103 90 79 77 85
276 270 258 242 233 232 236 242 242 236 230 230 235 248 260 257 242 218 205 245 295 315 330 340 350 4 18 27 35 50 61 64 70 81 89 92 89 83 78 76 73 69 66 66 68 72 77 84 96 111 127 142 149 148 143 140 141 143 146 151 157 164 169 168 164 181 176 149 132 126 122 122 126 131 137 142 142 138 133 129 122 108 96 87 80 77 79
273 266 258 253 247 243 242 244 242 234 228 227 234 243 250 247 238 229 222 226 241 251 269 298 319 339 2 15 21 33 44 52 60 70 80 88 91 89 86 84 81 77 73 71 70 71 72 75 80 89 102 119 137 150 158 160 160 160 160 158 152 137 114 88 75 78 95 110 114 112 113 120 129 136 139 141 142 138 130 121 114 108 102 95 90 87 87
269 269 268 268 264 258 254 253 248 240 235 234 236 243 249 249 243 236 229 226 233 238 243 257 279 305 336 1 10 19 33 42 47 55 67 75 79 80 81 83 83 81 79 77 77 76 76 76 76 77 81 89 100 115 130 143 154 163 168 172 171 142 101 78 68 73 90 110 120 120 121 128 137 141 138 136 136 132 122 116 115 115 112 106 100 95 93
268 272 274 275 270 265 262 261 257 252 247 242 239 241 245 245 239 233 228 228 234 242 249 256 268 283 305 326 334 336 11 45 55 64 72 74 73 73 73 74 75 75 75 74 75 77 79 79 78 77 77 79 82 88 97 108 118 123 125 126 124 117 105 91 83 89 104 117 126 131 132 135 141 144 140 136 136 133 125 122 124 126 124 118 110 103 97